Volver al catálogo

STARLINK-35726

ActivoComunicacionesVLEO
NORAD 66280·PAYLOAD·🇺🇸 United States

Lanzado Oct 31, 2025 desde Vandenberg Space Force Base

Loading…

Próximos Pases (próximas 24 horas)

TLE

ActualizadoSource: CelesTrak SupGP

Época: Sep 14, 2026, 21:01 UTC

1 66280C 25247R   26257.87618056  .00041266  00000+0  12198-2 0  2573
2 66280  53.1601  28.1150 0000975  78.2381 276.5408 15.34356089    14

Sigue STARLINK-35726 en tiempo real con AllMySat

Download on the App Store